Lanai City, HI

12:00 AM HST on January 21, 2018 (GMT -1000)
Lanai City

Weather History for PHNY - July, 2013

Change the Weather History Date:

Monday, July 1, 2013

  Actual Average Record
Temperature  
Mean Temperature 76 °F -  
Max Temperature 83 °F 82 °F 86 °F (1993)
Min Temperature 68 °F 65 °F 58 °F (1950)
Cooling Degree Days 10    
Growing Degree Days 26 (Base 50)    
Moisture  
Dew Point 65 °F    
Average Humidity 67    
Maximum Humidity 84    
Minimum Humidity 53    
Precipitation  
Precipitation 0.00 in - - ()
Sea Level Pressure  
Sea Level Pressure 30.00 in    
Wind  
Wind Speed 16 mph (NE)    
Max Wind Speed 31 mph    
Max Gust Speed 37 mph    
Visibility 10 miles    
Events      
Averages and records for this station are not official NWS values.
T = Trace of Precipitation, MM = Missing Value Source: NWS Daily Summary

Daily Weather History Graph

Daily Weather History Graph

Search for Another Location

Airport or City:

Trip Planner

Search our weather history database for the weather conditions in past years. The results will help you decide how hot, cold, wet, or windy it might be!

Date:

Astronomy

Jul. 01, 2013 Rise Set
Actual Time 5:50 AM HST 7:12 PM HST
Civil Twilight 5:25 AM HST 7:37 PM HST
Nautical Twilight 4:56 AM HST 8:06 PM HST
Astronomical Twilight 4:26 AM HST 8:37 PM HST
Moon 1:00 AM HST (7/1) 2:01 PM HST (7/1)
Length of Visible Light 14h 11m
Length of Day
13h 22m
Waning Crescent, 33% of the Moon is Illuminated
Jul 1
Waning Crescent
Jul 7
New
Jul 15
First Quarter
Jul 22
Full
Jul 29
Last Quarter

Hourly Weather History & Observations

Time (HST) Temp. Heat Index Dew Point Humidity Pressure Visibility Wind Dir Wind Speed Gust Speed Precip Events Conditions
12:56 AM 70.9 °F - 64.9 °F 81% 29.97 in 10.0 mi ENE 18.4 mph 29.9 mph N/A   Clear
1:56 AM 70.0 °F - 64.9 °F 84% 29.97 in 10.0 mi NE 18.4 mph 23.0 mph N/A   Partly Cloudy
2:56 AM 70.0 °F - 64.9 °F 84% 29.96 in 10.0 mi ENE 15.0 mph 27.6 mph N/A   Clear
3:56 AM 70.0 °F - 63.9 °F 81% 29.96 in 10.0 mi NE 16.1 mph 26.5 mph N/A   Clear
4:56 AM 70.0 °F - 61.9 °F 75% 29.96 in 10.0 mi ENE 18.4 mph 26.5 mph N/A   Clear
5:56 AM 68.9 °F - 63.0 °F 81% 29.99 in 10.0 mi ENE 15.0 mph 18.4 mph N/A   Clear
6:56 AM 72.0 °F - 63.9 °F 76% 30.01 in 10.0 mi NE 9.2 mph - N/A   Clear
7:56 AM 75.9 °F - 63.9 °F 66% 30.02 in 10.0 mi ENE 11.5 mph 17.3 mph N/A   Partly Cloudy
8:56 AM 79.9 °F - 63.9 °F 58% 30.02 in 2.5 mi East 13.8 mph 21.9 mph N/A   Haze
9:21 AM 80.6 °F 82.3 °F 64.4 °F 58% 30.09 in 10.0 mi ENE 11.5 mph 19.6 mph N/A   Clear
9:56 AM 81.9 °F 83.5 °F 64.9 °F 56% 30.01 in 10.0 mi ESE 6.9 mph 17.3 mph N/A   Partly Cloudy
10:19 AM 82.4 °F 84.6 °F 66.2 °F 58% 30.08 in 10.0 mi NE 11.5 mph - N/A   Scattered Clouds
10:46 AM 78.8 °F - 71.6 °F 78% 30.08 in 10.0 mi NE 11.5 mph - N/A   Scattered Clouds
10:49 AM 80.6 °F 82.7 °F 66.2 °F 61% 30.08 in 10.0 mi NE 15.0 mph - 0.00 in   Mostly Cloudy
10:56 AM 80.6 °F 82.7 °F 66.2 °F 61% 30.08 in 10.0 mi ENE 16.1 mph 20.7 mph N/A   Mostly Cloudy
11:55 AM 82.4 °F 83.9 °F 64.4 °F 54% 30.06 in 10.0 mi NE 17.3 mph - N/A   Scattered Clouds
11:56 AM 81.0 °F 82.7 °F 64.9 °F 58% 30.00 in 10.0 mi NNE 16.1 mph 23.0 mph N/A   Clear
12:50 PM 82.4 °F 84.6 °F 66.2 °F 58% 30.05 in 10.0 mi NE 17.3 mph - N/A   Scattered Clouds
12:56 PM 83.8 °F 86.5 °F 66.9 °F 57% 29.98 in 10.0 mi NE 20.7 mph 26.5 mph N/A   Clear
1:45 PM 82.4 °F 83.9 °F 64.4 °F 54% 30.04 in 10.0 mi WSW 17.3 mph - N/A   Scattered Clouds
1:56 PM 82.9 °F 84.6 °F 64.9 °F 54% 29.97 in 10.0 mi NE 21.9 mph - N/A   Clear
2:56 PM 83.8 °F 85.6 °F 64.9 °F 53% 29.96 in 10.0 mi NE 18.4 mph 27.6 mph N/A   Clear
3:31 PM 82.4 °F 84.6 °F 66.2 °F 58% 30.02 in 10.0 mi NE 18.4 mph - N/A   Mostly Cloudy
3:46 PM 82.4 °F 84.6 °F 66.2 °F 58% 30.02 in 10.0 mi NE 15.0 mph 26.5 mph N/A   Scattered Clouds
3:56 PM 82.9 °F 85.0 °F 65.8 °F 56% 29.95 in 10.0 mi NE 17.3 mph 23.0 mph N/A   Partly Cloudy
4:56 PM 79.9 °F - 66.9 °F 64% 29.95 in 10.0 mi ENE 21.9 mph 28.8 mph N/A   Partly Cloudy
5:56 PM 75.9 °F - 64.9 °F 69% 29.94 in 10.0 mi NE 31.1 mph 36.8 mph N/A   Clear
6:56 PM 72.9 °F - 63.9 °F 73% 29.96 in 10.0 mi NE 19.6 mph 29.9 mph N/A   Clear
7:56 PM 72.0 °F - 63.9 °F 76% 29.97 in 10.0 mi NE 26.5 mph 32.2 mph N/A   Clear
8:56 PM 70.9 °F - 63.9 °F 78% 29.97 in 10.0 mi NE 20.7 mph 28.8 mph N/A   Clear
9:56 PM 70.9 °F - 63.9 °F 78% 29.98 in - NNE 15.0 mph 21.9 mph N/A   Clear
10:56 PM 70.9 °F - 64.9 °F 81% 29.97 in - NE 16.1 mph 25.3 mph N/A   Clear
11:56 PM 70.0 °F - 63.0 °F 78% 29.97 in - NE 11.5 mph - N/A   Clear